User: anonymous   Login
Location: Caltech
(34.1382°N, 118.1253°W)
Time: 22:29:01
(UTC-07:00)
Language:

ERBS - Orbit

View from above orbital plane
View from above orbital plane
View from above satellite
View from above satellite

Ground track
Ground track

The orbit data is extracted from the following two-line orbital elements,

1 15354U 84108B   17179.27164997 +.00001867 +00000-0 +49450-4 0  9997
2 15354 057.0086 090.6607 0015850 114.0994 246.1721 15.43712862799648
Epoch (UTC): 28 June 2017 06:31:10
Eccentricity: 0.0015850
inclination: 57.0086°
perigee height: 424 km
apogee height: 446 km
right ascension of ascending node: 90.6607°
argument of perigee: 114.0994°
revolutions per day: 15.43712862
mean anomaly at epoch: 246.1721°
orbit number at epoch: 79964

The dashed part of the orbit path shows where the satellite is in the earth's shadow,  

DLR